Change the Weather History Date:

Friday, March 8, 2013

  Actual Average Record
Temperature  
Mean Temperature 71 °F -  
Max Temperature 82 °F 69 °F 86 °F (2008)
Min Temperature 60 °F 52 °F 37 °F (1997)
Cooling Degree Days 6    
Growing Degree Days 21 (Base 50)    
Moisture  
Dew Point 24 °F    
Average Humidity 17    
Maximum Humidity 45    
Minimum Humidity 5    
Precipitation  
Precipitation 0.00 in - - ()
Sea Level Pressure  
Sea Level Pressure 29.81 in    
Wind  
Wind Speed 7 mph ()    
Max Wind Speed 17 mph    
Max Gust Speed -    
Visibility 6.2 miles    
Events      
Averages and records for this station are not official NWS values.
T = Trace of Precipitation, MM = Missing Value Source: Averaged Metar Reports

Daily Weather History Graph

Daily Weather History Graph

Search for Another Location

Airport or City:

Trip Planner

Search our weather history database for the weather conditions in past years. The results will help you decide how hot, cold, wet, or windy it might be!

Date:

Astronomy

Mar. 08, 2013 Rise Set
Actual Time 5:59 AM IST 5:43 PM IST
Civil Twilight 5:35 AM IST 6:07 PM IST
Nautical Twilight 5:06 AM IST 6:36 PM IST
Astronomical Twilight 4:38 AM IST 7:04 PM IST
Moon 3:18 AM IST (3/8) 2:24 PM IST (3/8)
Length of Visible Light 12h 32m
Length of Day
11h 43m
Waning Crescent, 14% of the Moon is Illuminated
Mar 8
Waning Crescent
Mar 11
New
Mar 19
First Quarter
Mar 27
Full
Apr 3
Last Quarter

Hourly Weather History & Observations

Time (IST) Temp. Dew Point Humidity Pressure Visibility Wind Dir Wind Speed Gust Speed Precip Events Conditions
12:20 AM 66.2 °F 17.6 °F 15% 29.95 in 6.2 mi Variable 6.9 mph - N/A   Mostly Cloudy
12:50 AM 66.2 °F 17.6 °F 15% 29.95 in 6.2 mi East 8.1 mph - N/A   Mostly Cloudy
1:20 AM 66.2 °F 17.6 °F 15% 29.95 in 6.2 mi East 6.9 mph - N/A   Scattered Clouds
1:50 AM 66.2 °F 17.6 °F 15% 29.92 in 6.2 mi ENE 5.8 mph - N/A   Scattered Clouds
2:00 AM 67 °F 18 °F 7% 29.93 in 6 mi ENE 5.8 mph - -  
3:50 AM 64.4 °F 17.6 °F 16% 29.86 in 6.2 mi East 4.6 mph - N/A   Partly Cloudy
4:20 AM 64.4 °F 17.6 °F 16% 29.86 in - Variable 3.5 mph - N/A   Clear
4:50 AM 64.4 °F 17.6 °F 16% 29.86 in - Variable 3.5 mph - N/A   Clear
5:20 AM 64.4 °F 15.8 °F 15% 29.86 in 6.2 mi East 11.5 mph - N/A   Partly Cloudy
5:50 AM 64.4 °F 17.6 °F 16% 29.86 in 6.2 mi East 5.8 mph - N/A   Partly Cloudy
6:20 AM 64.4 °F 17.6 °F 16% 29.86 in 6.2 mi East 5.8 mph - N/A   Mostly Cloudy
6:50 AM 64.4 °F 17.6 °F 16% 29.86 in 6.2 mi East 8.1 mph - N/A   Mostly Cloudy
7:50 AM 68.0 °F 17.6 °F 15% 29.86 in 6.2 mi East 9.2 mph - N/A   Scattered Clouds
8:00 AM 69 °F 17 °F 6% 29.88 in 6 mi NNE 5.8 mph - -   Mostly Cloudy
8:20 AM 69.8 °F 17.6 °F 14% 29.86 in 6.2 mi ESE 9.2 mph - N/A   Scattered Clouds
8:50 AM 71.6 °F 19.4 °F 14% 29.86 in 6.2 mi ESE 8.1 mph - N/A   Scattered Clouds
9:20 AM 73.4 °F 19.4 °F 13% 29.86 in 6.2 mi ESE 15.0 mph - N/A   Scattered Clouds
9:50 AM 73.4 °F 19.4 °F 13% 29.86 in 6.2 mi ESE 13.8 mph - N/A   Scattered Clouds
10:20 AM 75.2 °F 21.2 °F 13% 29.86 in 6.2 mi ESE 11.5 mph - N/A   Scattered Clouds
10:50 AM 77.0 °F 21.2 °F 12% 29.83 in 6.2 mi ESE 11.5 mph - N/A   Scattered Clouds
11:20 AM 77.0 °F 19.4 °F 12% 29.83 in 6.2 mi ESE 17.3 mph - N/A   Mostly Cloudy
11:50 AM 78.8 °F 21.2 °F 12% 29.80 in 6.2 mi ESE 17.3 mph - N/A   Mostly Cloudy
12:20 PM 78.8 °F 21.2 °F 12% 29.80 in 6.2 mi ESE 15.0 mph - N/A   Mostly Cloudy
12:50 PM 80.6 °F 21.2 °F 11% 29.77 in 6.2 mi ESE 16.1 mph - N/A   Mostly Cloudy
1:20 PM 80.6 °F 21.2 °F 11% 29.77 in 6.2 mi ESE 15.0 mph - N/A   Mostly Cloudy
1:50 PM 80.6 °F 21.2 °F 11% 29.74 in 6.2 mi ESE 13.8 mph - N/A   Scattered Clouds
2:00 PM 81 °F 22 °F 5% 29.76 in 6 mi ESE 15.0 mph - -   Clear
2:20 PM 80.6 °F 21.2 °F 11% 29.74 in 6.2 mi ESE 11.5 mph - N/A   Scattered Clouds
2:50 PM 82.4 °F 23.0 °F 11% 29.74 in 6.2 mi SE 6.9 mph - N/A   Partly Cloudy
3:20 PM 82.4 °F 24.8 °F 12% 29.74 in 6.2 mi Variable 2.3 mph - N/A   Partly Cloudy
3:50 PM 82.4 °F 24.8 °F 12% 29.74 in 6.2 mi WNW 4.6 mph - N/A   Partly Cloudy
4:20 PM 82.4 °F 28.4 °F 14% 29.71 in 6.2 mi NNW 4.6 mph - N/A   Scattered Clouds
4:50 PM 80.6 °F 26.6 °F 14% 29.71 in 6.2 mi ENE 5.8 mph - N/A   Partly Cloudy
5:20 PM 78.8 °F 24.8 °F 14% 29.74 in 6.2 mi ESE 8.1 mph - N/A   Partly Cloudy
5:50 PM 78.8 °F 24.8 °F 14% 29.74 in - East 5.8 mph - N/A   Clear
6:20 PM 73.4 °F 30.2 °F 20% 29.74 in - East 4.6 mph - N/A   Clear
6:50 PM 69.8 °F 32.0 °F 25% 29.74 in - ENE 5.8 mph - N/A   Clear
7:20 PM 69.8 °F 32.0 °F 25% 29.74 in - NE 4.6 mph - N/A   Clear
7:50 PM 69.8 °F 28.4 °F 21% 29.74 in - Variable 3.5 mph - N/A   Clear
8:00 PM 70 °F 29 °F 12% 29.76 in 6 mi NE 4.6 mph - -  
8:20 PM 69.8 °F 28.4 °F 21% 29.77 in - SE 4.6 mph - N/A   Clear
8:50 PM 66.2 °F 32.0 °F 28% 29.77 in - Variable 3.5 mph - N/A   Clear
9:20 PM 66.2 °F 32.0 °F 28% 29.77 in - Variable 3.5 mph - N/A   Clear
9:50 PM 64.4 °F 33.8 °F 32% 29.77 in - Variable 1.2 mph - N/A   Clear
10:20 PM 60.8 °F 39.2 °F 45% 29.77 in - Variable 2.3 mph - N/A   Clear
10:50 PM 60.8 °F 37.4 °F 42% 29.77 in - Variable 2.3 mph - N/A   Clear
11:20 PM 60.8 °F 37.4 °F 42% 29.77 in - Variable 2.3 mph - N/A   Clear
11:50 PM 60.8 °F 37.4 °F 42% 29.77 in - Variable 3.5 mph - N/A   Clear